THOR ABLESTAR DEB, 245

Orbit data source: Space-Track

THOR ABLESTAR DEB, 245 is space debris in LEO originally from a launch on Thu, 29 Jun 1961 UTC launched from the Air Force Eastern Test Range (AFETR). Debris objects in space refer to the collection of defunct objects orbiting the Earth. Examples of debris include non-operational satellites, rocket bodies, and fragments generated from explosions, collisions, or faulty payload assembly.

Loading next visibility...
Identifier
245, 1961-015CA
Orbit
LEO
Country
Flag of USUS
Related business
Manufacturer
Unknown
Mission
Spacecraft
Bus & Motor
Unknown
Mass
Unknown
Launch date (UTC)
1961-06-29 (64 years ago)
Launch vehicle
Unknown
Launch site
Air Force Eastern Test Range (AFETR)
Object type
Payload
Rocket body
Debris
Shape & HBR
Unknown
Radar Cross Section
Medium (>0.1 m² and <1 m²)

Expand to show TLE details & history
Last TLE update: 16 hours ago

TLE from 16 hours ago
0 THOR ABLESTAR DEB
1 00245U 61015CA  25259.49187070  .00000889  00000-0  47382-3 0  9995
2 00245  66.1038 170.3449 0049813 348.4363  11.5575 14.17633641289077
Epoch: 2025-09-16T11:48Z
TLE epoch observation values (Epoch: 2025-09-16T11:48:17.628Z)
Latitude
-0.00002°
Longitude
-2.40996°
Altitude
800.224 km
Speed
7.472 km/s
True Right ascension
11h 21m 22s
True Declination
0° 00' 00"
Sunlit
Object was in daylight at epoch
Visualization orbit readout
Latitude
Unknown
Longitude
Unknown
Altitude
Unknown
Speed
Unknown
Apparent Right ascension
Unknown
Apparent Declination
Unknown
Sunlit
N/A
Visualization observer readout
Local Sidereal Time
20:22:37
Azimuth
Unknown
Elevation
Unknown
Doppler factor
Unknown
Orbital elements
Apogee altitude
867.736 km
Perigee altitude
795.906 km
Semi-major axis
7,209.958 km
Eccentricity
0.00498
Inclination
66.1038°
RAAN
170.3449°
Arg. of periapsis
348.4363°
True anomaly
11.67257°
Mean anomaly
11.5575°
Eccentric anomaly
11.61496°
Mean motion
3.54523 °/min
Orbital period
101.54 mins
BSTAR
0.00047382
Loading maneuver chart data...
Computing Atmospheric mass density...

Documentation

Showing up to 5 results
|